Regional Weather Roundup
Issued by NWS

Home | Current Version | Previous Version | Graphics & Text | Print | Product List | Glossary On
Versions: 1 2 3 4 5 6 7 8 9 10 11 12 13 14 15 16 17 18 19 20 21 22 23 24 25 26 27 28 29 30 31 32 33 34 35 36 37 38 39 40 41 42 43 44 45 46 47 48 49 50
000
ASUS45 KTFX 031510
RWRMT
MONTANA REGIONAL WEATHER ROUNDUP
NATIONAL WEATHER SERVICE GREAT FALLS MT
900 AM MDT MON AUG 03 2015

NOTE: "FAIR" INDICATES FEW OR NO CLOUDS BELOW 12000 FEET WITH NO
SIGNIFICANT WEATHER AND/OR OBSTRUCTIONS TO VISIBILITY.

MTZ001>007-043-031600-
WEST OF THE DIVIDE

CITY           SKY/WX    TMP DP  RH WIND       PRES   REMARKS
KALISPELL      SUNNY     68  37  32 CALM      29.90R SMOKE
MISSOULA       PTSUNNY   65  34  31 CALM      29.93S
BUTTE          MOSUNNY   65  40  39 CALM      30.06F
MULLAN PASS    MOSUNNY   72  26  18 CALM      30.06S
DEER LODGE       N/A     66  39  37 CALM      30.04F
EUREKA           N/A     64  37  36 S3        29.90
HAMILTON         N/A     64  43  45 SW5       29.94R
LIBBY            N/A     63  36  36 CALM      29.89S
PLAINS           N/A     61  39  44 CALM      29.89S
RONAN            N/A     69  44  40 CALM      29.94S
$$

MTZ008-052>055-031600-
SOUTHWEST MONTANA

CITY           SKY/WX    TMP DP  RH WIND       PRES   REMARKS
BOZEMAN        SUNNY     66  49  54 N3        30.01F
DILLON         MOSUNNY   59  45  59 SW7       30.05S
W YELLOWSTONE  MOSUNNY   57  39  51 NE3       30.17S
THREE FORKS      N/A     64  64 100 CALM      30.00S
TWIN BRIDGES     N/A     59  42  53 S1        30.03S
$$

MTZ009-010-012-014-046-048-049-054-031600-
EAST SLOPES AND CENTRAL MONTANA

CITY           SKY/WX    TMP DP  RH WIND       PRES   REMARKS
CUT BANK       SUNNY     63  49  60 CALM      29.97S
GREAT FALLS    MOSUNNY   70  48  45 CALM      29.95S
MALMSTROM AFB  MOSUNNY   69  47  44 N2        29.95S
HELENA         MOSUNNY   67  45  45 CALM      29.98F
$$

MTZ011-013-016-021-045-047-050-051-031600-
NORTH CENTRAL MONTANA

CITY           SKY/WX    TMP DP  RH WIND       PRES   REMARKS
HAVRE          SUNNY     69  53  56 E14       29.93S
LEWISTOWN      MOSUNNY   71  50  47 E10       30.02S
CHINOOK          N/A     66  54  63 E15       29.96S
FORT BENTON      N/A     72  50  46 E6        29.94F
$$

MTZ017>020-022>027-061-062-031600-
NORTHEAST MONTANA

CITY           SKY/WX    TMP DP  RH WIND       PRES   REMARKS
GLASGOW        SUNNY     70  48  45 SE15      30.02S
JORDAN           N/A     70  47  43 E8        30.01F
SIDNEY         SUNNY    N/A N/A N/A CALM      30.04S
WOLF POINT     SUNNY     68  50  52 E6        30.04S
MALTA            N/A     70  53  54 NE3       29.97F
POPLAR           N/A     70  50  49 E6        30.04F
SCOBEY           N/A     66  49  54 N3        30.04F
$$

MTZ028>42-056>058-031600-
SOUTHCENTRAL AND SOUTHEAST MONTANA

CITY           SKY/WX    TMP DP  RH WIND       PRES   REMARKS
BAKER          SUNNY     70  48  45 SE13      30.06F
BILLINGS       MOSUNNY   68  47  46 NE7       30.02S
LIVINGSTON     MOSUNNY   64  43  46 CALM      30.05F
MILES CITY     SUNNY     73  49  42 E6        30.01S
EKALAKA          N/A     70  47  43 E13       30.04R
FORSYTH          N/A     70  48  46 E7        29.99F
LAUREL           N/A     67  47  48 CALM      30.01R
ROUNDUP          N/A     68  46  45 CALM      29.94S
$$

REGIONAL REPORTS...DAKOTAS

CITY           SKY/WX    TMP DP  RH WIND       PRES   REMARKS
WILLISTON      SUNNY     67  50  54 CALM      30.05F
MINOT          SUNNY     67  51  56 VRB3      30.02S
DICKINSON      SUNNY     67  52  58 E5        30.05S
BEACH          FAIR      68  48  49 SE9       30.07S
CROSBY         FAIR      66  54  63 S3        30.05S
BISMARCK       SUNNY     67  53  61 CALM      30.04S
GRAND FORKS    SUNNY     68  52  56 NW12      29.93S
FARGO          SUNNY     68  54  60 N8        29.94S
BUFFALO SD       N/A     69  52  54 SE8       30.00S
RAPID CITY     MOSUNNY   71  57  61 SE7       30.06R
$$

REGIONAL REPORTS...WYOMING/IDAHO/WASHINGTON

CITY           SKY/WX    TMP DP  RH WIND       PRES   REMARKS
GILLETTE       MOSUNNY   73  55  53 SE10      30.07R
SHERIDAN       MOSUNNY   67  48  50 CALM      30.03S
BUFFALO WY     MOSUNNY   74  55  51 SE14      30.10R
CODY           MOSUNNY   66  46  48 N6        30.07S
YELLOWSTONE LA   N/A     64  39  39 CALM      30.26R
IDAHO FALLS    CLOUDY    66  52  60 CALM      30.03R
SALMON         MOSUNNY   61  45  55 CALM      29.95S
BOISE          CLOUDY    79  48  33 N5        29.90R
SPOKANE        MOSUNNY   72  31  22 S7        29.83R
$$

REGIONAL REPORTS...ALBERTA

CITY           SKY/WX    TMP DP  RH WIND       PRES   REMARKS
EDMONTON       MOSUNNY   64  55  72 NE9       29.89R
CALGARY        CLOUDY    63  52  67 S7        29.91S
LETHBRIDGE     PTSUNNY   66  55  68 SE6       29.90F
MEDICINE HAT   CLOUDY    72  52  49 N8        29.90S
WATERTON GATE    N/A     59  48  67 W3          N/A
CARDSTON         N/A     64  52  63 SE5         N/A
MILK RIVER       N/A     70  50  49 S18G24      N/A
ONEFOUR          N/A     66  50  55 E15         N/A
$$

REGIONAL REPORTS...SASKATCHEWAN

CITY           SKY/WX    TMP DP  RH WIND       PRES   REMARKS
SWIFT CURRENT  SUNNY     70  55  60 S9        30.01F
REGINA         PTSUNNY   73  55  53 SW3       30.03S
SASKATOON      MOSUNNY   68  55  64 W3        30.03R
CYPRESS HILLS    N/A     63  48  59 SE10        N/A
VAL MARIE        N/A     70  50  49 S10         N/A
ROCKGLEN         N/A     66  52  59 SE9         N/A
$$


USA.gov is the U.S. government's official web portal to all federal, state and local government web resources and services.